Date String (YYYY-MM-DD hh:mm:ss) UTC,Instrument flags,Ambient pressure (hPa),Sample flow (lpm),Bypass flow (lpm),Sample temperature (°C),Ambient temperature (°C),ASC tube jacket temperature (°C),LED temperature (°C),Box temperature (°C),Sample RH (%),Span deviation,Mass concentration (μg/m³),Mass concentration (μg/m³),Mass concentration (μg/m³)
DateTimeUTC,F1_M11,P_M11,Q1_M11,Q2_M11,T1_M11,T2_M11,T3_M11,T4_M11,T5_M11,U1_M11,ZSPAN_M11,X0_M11,X2_M11,X1_M11
2021-09-29 06:00:00,,0819.2,4.99,0.00,29.6,28.4,00.0,38.8,31.4,20.0,0001.6,0019.37,0005.64,0004.56
2021-09-29 06:01:00,,0819.2,5.01,0.00,29.6,28.4,00.0,38.8,31.4,20.0,0001.4,0019.41,0005.65,0004.56
2021-09-29 06:02:00,,0819.2,5.00,0.00,29.6,28.5,00.0,38.8,31.4,20.0,0001.2,0018.47,0005.62,0004.56
2021-09-29 06:03:00,,0819.3,5.00,0.00,29.6,28.5,00.0,38.8,31.4,20.0,0001.4,0018.07,0005.57,0004.54
2021-09-29 06:04:00,,0819.2,4.99,0.00,29.7,28.6,00.0,38.8,31.4,20.0,0001.3,0016.66,0005.56,0004.52
2021-09-29 06:05:00,,0819.2,5.01,0.00,29.7,28.6,00.0,38.8,31.4,20.0,0001.4,0014.41,0005.52,0004.52
2021-09-29 06:06:00,,0819.3,4.98,0.00,29.7,28.6,00.0,38.8,31.4,20.0,0001.5,0014.34,0005.55,0004.52
2021-09-29 06:07:00,,0819.2,5.01,0.00,29.7,28.7,00.0,38.8,31.5,20.0,0001.5,0014.13,0005.50,0004.50
2021-09-29 06:08:00,,0819.2,5.00,0.00,29.7,28.7,00.0,38.8,31.5,20.0,0001.4,0014.02,0005.43,0004.48
2021-09-29 06:09:00,,0819.3,4.99,0.00,29.7,28.8,00.0,38.8,31.5,20.0,0001.5,0013.72,0005.42,0004.47
2021-09-29 06:10:00,,0819.3,5.00,0.00,29.7,28.8,00.0,38.8,31.5,20.1,0001.7,0014.02,0005.36,0004.45
2021-09-29 06:11:00,,0819.4,5.00,0.00,29.8,28.8,00.0,38.8,31.6,20.1,0001.7,0013.47,0005.33,0004.43
2021-09-29 06:12:00,,0819.4,5.01,0.00,29.8,28.8,00.0,38.9,31.6,20.1,0001.9,0013.49,0005.32,0004.43
2021-09-29 06:13:00,,0819.4,5.00,0.00,29.8,28.9,00.0,38.9,31.6,20.0,0002.2,0013.36,0005.31,0004.43
2021-09-29 06:14:00,,0819.4,5.00,0.00,29.8,28.9,00.0,38.9,31.6,20.0,0002.4,0013.22,0005.31,0004.44
2021-09-29 06:15:00,,0819.4,5.00,0.00,29.8,28.9,00.0,38.9,31.7,20.0,0002.7,0012.87,0005.34,0004.45
2021-09-29 06:16:00,,0819.4,5.00,0.00,29.9,29.0,00.0,38.9,31.7,19.9,0002.8,0012.90,0005.32,0004.45
2021-09-29 06:17:00,,0819.4,5.00,0.00,29.9,29.0,00.0,38.9,31.7,19.9,0002.6,0012.79,0005.26,0004.44
2021-09-29 06:18:00,,0819.4,5.01,0.00,29.9,29.1,00.0,38.9,31.7,19.9,0002.7,0012.65,0005.31,0004.46
2021-09-29 06:19:00,,0819.4,4.99,0.00,29.9,29.1,00.0,39.0,31.7,19.9,0002.8,0012.65,0005.36,0004.47
2021-09-29 06:20:00,,0819.4,5.00,0.00,30.0,29.1,00.0,39.0,31.7,19.8,0002.7,0013.15,0005.32,0004.47
2021-09-29 06:21:00,,0819.4,5.01,0.00,30.0,29.2,00.0,39.0,31.8,19.8,0002.7,0012.79,0005.36,0004.48
2021-09-29 06:22:00,,0819.4,4.99,0.00,30.0,29.2,00.0,39.0,31.8,19.8,0002.8,0013.69,0005.40,0004.50
2021-09-29 06:23:00,,0819.4,5.00,0.00,30.0,29.2,00.0,39.0,31.9,19.7,0002.8,0015.21,0005.41,0004.50
2021-09-29 06:24:00,,0819.4,5.00,0.00,30.0,29.2,00.0,39.0,31.9,19.7,0002.5,0015.74,0005.47,0004.50
2021-09-29 06:25:00,,0819.4,4.99,0.00,30.1,29.3,00.0,39.1,31.9,19.7,0002.6,0015.98,0005.52,0004.51
2021-09-29 06:26:00,,0819.4,5.01,0.00,30.1,29.3,00.0,39.1,31.9,19.6,0002.6,0016.28,0005.51,0004.52
2021-09-29 06:27:00,,0819.4,4.99,0.00,30.1,29.3,00.0,39.1,31.9,19.6,0002.6,0016.46,0005.51,0004.52
2021-09-29 06:28:00,,0819.4,5.00,0.00,30.1,29.3,00.0,39.1,32.0,19.6,0002.8,0017.00,0005.51,0004.52
2021-09-29 06:29:00,,0819.4,4.99,0.00,30.1,29.3,00.0,39.2,32.0,19.5,0002.6,0016.83,0005.48,0004.52
2021-09-29 06:30:00,,0819.4,5.00,0.00,30.1,27.9,00.0,39.2,31.6,19.5,0002.3,0016.85,0005.48,0004.53
2021-09-29 06:31:00,,0819.5,5.00,0.00,29.9,26.3,00.0,39.1,31.2,19.6,0002.1,0017.24,0005.51,0004.54
2021-09-29 06:32:00,,0819.4,5.00,0.00,29.8,26.3,00.0,39.1,31.2,19.8,0002.3,0017.44,0005.52,0004.55
2021-09-29 06:33:00,,0819.4,5.01,0.00,29.7,26.7,00.0,39.0,31.1,19.8,0002.5,0016.87,0005.50,0004.54
2021-09-29 06:34:00,,0819.5,5.00,0.00,29.7,27.1,00.0,39.0,31.2,19.9,0002.5,0015.03,0005.52,0004.54
2021-09-29 06:35:00,,0819.4,5.00,0.00,29.7,27.4,00.0,38.9,31.2,19.9,0002.5,0014.61,0005.50,0004.54
2021-09-29 06:36:00,,0819.4,5.01,0.00,29.7,27.7,00.0,38.9,31.3,19.9,0002.6,0014.93,0005.44,0004.53
2021-09-29 06:37:00,,0819.4,4.99,0.00,29.7,28.0,00.0,38.9,31.3,19.8,0002.5,0014.42,0005.42,0004.52
2021-09-29 06:38:00,,0819.4,5.01,0.00,29.7,28.2,00.0,38.9,31.4,19.7,0002.4,0014.03,0005.37,0004.50
2021-09-29 06:39:00,,0819.4,4.99,0.00,29.7,28.3,00.0,38.9,31.4,19.6,0002.2,0013.85,0005.36,0004.49
2021-09-29 06:40:00,,0819.4,5.01,0.00,29.7,28.5,00.0,38.9,31.5,19.5,0002.4,0013.77,0005.34,0004.46
2021-09-29 06:41:00,,0819.4,4.99,0.00,29.8,28.6,00.0,38.9,31.5,19.5,0002.5,0014.60,0005.28,0004.41
2021-09-29 06:42:00,,0819.5,5.00,0.00,29.8,28.7,00.0,38.9,31.5,19.5,0002.8,0013.60,0005.18,0004.38
2021-09-29 06:43:00,,0819.5,5.01,0.00,29.8,28.7,00.0,38.9,31.5,19.3,0002.6,0012.93,0005.13,0004.31
2021-09-29 06:44:00,,0819.5,5.00,0.00,29.8,28.8,00.0,38.9,31.6,19.0,0002.0,0012.68,0005.01,0004.23
2021-09-29 06:45:00,,0819.5,5.00,0.00,29.8,28.8,00.0,38.9,31.6,18.7,0001.9,0012.64,0004.82,0004.10
2021-09-29 06:46:00,,0819.5,5.00,0.00,29.9,28.8,00.0,38.9,31.6,18.6,0001.8,0013.00,0004.63,0003.97
2021-09-29 06:47:00,,0819.5,5.00,0.00,29.9,28.9,00.0,38.9,31.7,18.7,0001.5,0012.45,0004.44,0003.85
2021-09-29 06:48:00,,0819.5,5.00,0.00,29.9,28.9,00.0,38.9,31.7,18.6,0001.3,0012.12,0004.28,0003.73
2021-09-29 06:49:00,,0819.5,5.01,0.00,29.9,28.9,00.0,39.0,31.7,18.7,0001.3,0011.97,0004.16,0003.63
2021-09-29 06:50:00,,0819.6,4.98,0.00,29.9,29.0,00.0,39.0,31.7,18.6,0001.4,0011.17,0004.04,0003.53
2021-09-29 06:51:00,,0819.5,5.01,0.00,29.9,29.0,00.0,39.0,31.7,18.7,0001.6,0010.84,0003.94,0003.45
2021-09-29 06:52:00,,0819.5,4.99,0.00,29.9,28.9,00.0,39.0,31.7,18.9,0001.7,0009.45,0003.85,0003.39
2021-09-29 06:53:00,,0819.5,5.02,0.00,29.9,28.9,00.0,39.0,31.7,19.1,0001.9,0009.39,0003.81,0003.34
2021-09-29 06:54:00,,0819.5,4.99,0.00,29.9,28.9,00.0,39.0,31.6,19.4,0001.7,0009.34,0003.78,0003.33
2021-09-29 06:55:00,,0819.5,5.01,0.00,29.9,28.9,00.0,39.0,31.6,19.6,0002.1,0010.12,0003.83,0003.35
2021-09-29 06:56:00,,0819.5,4.98,0.00,29.9,28.9,00.0,39.0,31.6,19.7,0002.0,0010.11,0003.89,0003.40
2021-09-29 06:57:00,,0819.5,5.00,0.00,29.9,28.9,00.0,39.0,31.6,19.7,0002.3,0010.03,0004.01,0003.48
2021-09-29 06:58:00,,0819.5,5.00,0.00,29.9,28.9,00.0,39.0,31.6,19.7,0001.9,0010.86,0004.11,0003.55
2021-09-29 06:59:00,,0819.5,5.00,0.00,29.9,29.0,00.0,39.0,31.6,19.5,0001.6,0012.27,0004.21,0003.60
